| time (UTC) | temp C | wind direction | speed KPH | gust KPH | rain 1hr cm | rain 24hr cm | rain mn cm | humidity % | barometer mb |
| 20260510194556 | 16 | 0 | 1.6 | 17.7 | 0.00 | 0.00 | 0.00 | 34 | 1018.5 |
| 20260510194045 | 17 | 0 | 1.6 | 17.7 | 0.00 | 0.00 | 0.00 | 32 | 1018.5 |
| 20260510193547 | 16 | 5 | 0.0 | 9.7 | 0.00 | 0.00 | 0.00 | 34 | 1018.5 |
| 20260510193055 | 16 | 55 | 0.0 | 8.0 | 0.00 | 0.00 | 0.00 | 36 | 1018.4 |
| 20260510192547 | 16 | 11 | 0.0 | 12.9 | 0.00 | 0.00 | 0.00 | 36 | 1018.5 |
| 20260510192046 | 16 | 222 | 1.6 | 12.9 | 0.00 | 0.00 | 0.00 | 36 | 1018.4 |
| 20260510191556 | 16 | 27 | 1.6 | 12.9 | 0.00 | 0.00 | 0.00 | 34 | 1018.6 |
| 20260510191047 | 16 | 33 | 1.6 | 11.3 | 0.00 | 0.00 | 0.00 | 31 | 1018.5 |
| 20260510190545 | 16 | 0 | 1.6 | 11.3 | 0.00 | 0.00 | 0.00 | 32 | 1018.6 |
| 20260510190056 | 16 | 74 | 1.6 | 9.7 | 0.00 | 0.00 | 0.00 | 32 | 1018.6 |
| 20260510185546 | 17 | 318 | 1.6 | 12.9 | 0.00 | 0.00 | 0.00 | 32 | 1018.4 |
| 20260510185046 | 17 | 62 | 1.6 | 12.9 | 0.00 | 0.00 | 0.00 | 35 | 1018.5 |
| 20260510184556 | 17 | 0 | 1.6 | 12.9 | 0.00 | 0.00 | 0.00 | 31 | 1018.4 |
| 20260510184045 | 16 | 0 | 1.6 | 6.4 | 0.00 | 0.00 | 0.00 | 33 | 1018.5 |
| 20260510183547 | 16 | 0 | 1.6 | 6.4 | 0.00 | 0.00 | 0.00 | 39 | 1018.5 |
| 20260510183053 | 16 | 0 | 0.0 | 8.0 | 0.00 | 0.00 | 0.00 | 33 | 1018.6 |
| 20260510182549 | 16 | 186 | 1.6 | 8.0 | 0.00 | 0.00 | 0.00 | 36 | 1018.5 |
| 20260510182045 | 15 | 0 | 0.0 | 8.0 | 0.00 | 0.00 | 0.00 | 37 | 1018.6 |
| 20260510181551 | 16 | 195 | 1.6 | 12.9 | 0.00 | 0.00 | 0.00 | 33 | 1018.5 |
| 20260510181050 | 17 | 0 | 3.2 | 12.9 | 0.00 | 0.00 | 0.00 | 46 | 1018.6 |
| 20260510180549 | 16 | 199 | 0.0 | 12.9 | 0.00 | 0.00 | 0.00 | 38 | 1018.6 |
| 20260510180051 | 15 | 208 | 0.0 | 6.4 | 0.00 | 0.00 | 0.00 | 39 | 1018.7 |
| 20260510175546 | 16 | 62 | 1.6 | 4.8 | 0.00 | 0.00 | 0.00 | 39 | 1018.7 |
| 20260510175046 | 15 | 35 | 0.0 | 4.8 | 0.00 | 0.00 | 0.00 | 43 | 1018.8 |
| 20260510174555 | 14 | 202 | 0.0 | 8.0 | 0.00 | 0.00 | 0.00 | 40 | 1018.8 |
| 20260510174045 | 14 | 157 | 0.0 | 8.0 | 0.00 | 0.00 | 0.00 | 40 | 1018.7 |
| 20260510173546 | 14 | 46 | 0.0 | 17.7 | 0.00 | 0.00 | 0.00 | 37 | 1018.7 |
| 20260510173052 | 15 | 58 | 3.2 | 17.7 | 0.00 | 0.00 | 0.00 | 40 | 1018.6 |
| 20260510172544 | 15 | 0 | 1.6 | 11.3 | 0.00 | 0.00 | 0.00 | 41 | 1018.6 |
| 20260510172045 | 15 | 63 | 0.0 | 11.3 | 0.00 | 0.00 | 0.00 | 40 | 1018.6 |
| 20260510171606 | 15 | 0 | 0.0 | 11.3 | 0.00 | 0.00 | 0.00 | 40 | 1018.6 |
| 20260510171045 | 15 | 28 | 0.0 | 8.0 | 0.00 | 0.00 | 0.00 | 37 | 1018.6 |
| 20260510170547 | 15 | 38 | 1.6 | 8.0 | 0.00 | 0.00 | 0.00 | 35 | 1018.6 |
| 20260510170051 | 16 | 0 | 0.0 | 12.9 | 0.00 | 0.00 | 0.00 | 36 | 1018.6 |
| 20260510165548 | 16 | 144 | 1.6 | 12.9 | 0.00 | 0.00 | 0.00 | 41 | 1018.5 |
| 20260510165046 | 16 | 51 | 3.2 | 12.9 | 0.00 | 0.00 | 0.00 | 39 | 1018.6 |
| 20260510164556 | 15 | 0 | 1.6 | 8.0 | 0.00 | 0.00 | 0.00 | 37 | 1018.6 |
| 20260510164047 | 15 | 0 | 1.6 | 8.0 | 0.00 | 0.00 | 0.00 | 36 | 1018.5 |
| 20260510163548 | 15 | 346 | 0.0 | 8.0 | 0.00 | 0.00 | 0.00 | 41 | 1018.6 |
| 20260510163109 | 13 | 0 | 0.0 | 8.0 | 0.00 | 0.00 | 0.00 | 43 | 1018.6 |
| 20260510162546 | 13 | 0 | 1.6 | 8.0 | 0.00 | 0.00 | 0.00 | 42 | 1018.5 |
| 20260510162043 | 13 | 184 | 1.6 | 11.3 | 0.00 | 0.00 | 0.00 | 40 | 1018.5 |
| 20260510161554 | 14 | 0 | 0.0 | 11.3 | 0.00 | 0.00 | 0.00 | 36 | 1018.4 |
| 20260510161045 | 14 | 203 | 4.8 | 11.3 | 0.00 | 0.00 | 0.00 | 42 | 1018.4 |
| 20260510160543 | 14 | 198 | 4.8 | 12.9 | 0.00 | 0.00 | 0.00 | 40 | 1018.6 |
| 20260510160057 | 14 | 0 | 1.6 | 12.9 | 0.00 | 0.00 | 0.00 | 42 | 1018.5 |
| 20260510155547 | 14 | 134 | 1.6 | 9.7 | 0.00 | 0.00 | 0.00 | 41 | 1018.5 |
| 20260510155045 | 13 | 0 | 3.2 | 9.7 | 0.00 | 0.00 | 0.00 | 47 | 1018.5 |
| 20260510154601 | 13 | 201 | 3.2 | 9.7 | 0.00 | 0.00 | 0.00 | 48 | 1018.5 |
| 20260510154047 | 13 | 198 | 3.2 | 9.7 | 0.00 | 0.00 | 0.00 | 46 | 1018.4 |
| 20260510153545 | 13 | 212 | 4.8 | 9.7 | 0.00 | 0.00 | 0.00 | 45 | 1018.4 |
| 20260510153101 | 13 | 201 | 0.0 | 4.8 | 0.00 | 0.00 | 0.00 | 50 | 1018.5 |
| 20260510152547 | 13 | 0 | 0.0 | 9.7 | 0.00 | 0.00 | 0.00 | 47 | 1018.5 |
| 20260510152046 | 13 | 0 | 0.0 | 9.7 | 0.00 | 0.00 | 0.00 | 49 | 1018.3 |
| 20260510151602 | 12 | 200 | 1.6 | 9.7 | 0.00 | 0.00 | 0.00 | 48 | 1018.4 |
| 20260510151048 | 12 | 179 | 4.8 | 9.7 | 0.00 | 0.00 | 0.00 | 49 | 1018.3 |
| 20260510150548 | 11 | 219 | 1.6 | 11.3 | 0.00 | 0.00 | 0.00 | 47 | 1018.5 |
| 20260510150058 | 11 | 215 | 4.8 | 11.3 | 0.00 | 0.00 | 0.00 | 49 | 1018.5 |
| 20260510145545 | 11 | 177 | 1.6 | 11.3 | 0.00 | 0.00 | 0.00 | 48 | 1018.5 |
| 20260510145046 | 11 | 188 | 4.8 | 11.3 | 0.00 | 0.00 | 0.00 | 48 | 1018.5 |
| 20260510144610 | 11 | 183 | 4.8 | 8.0 | 0.00 | 0.00 | 0.00 | 47 | 1018.4 |
| 20260510144043 | 11 | 203 | 0.0 | 8.0 | 0.00 | 0.00 | 0.00 | 50 | 1018.5 |
| 20260510143545 | 11 | 192 | 0.0 | 4.8 | 0.00 | 0.00 | 0.00 | 46 | 1018.5 |
| 20260510143108 | 11 | 0 | 0.0 | 11.3 | 0.00 | 0.00 | 0.00 | 44 | 1018.5 |
| 20260510142547 | 11 | 194 | 1.6 | 11.3 | 0.00 | 0.00 | 0.00 | 51 | 1018.4 |
| 20260510142047 | 11 | 188 | 1.6 | 8.0 | 0.00 | 0.00 | 0.00 | 50 | 1018.4 |
| 20260510141550 | 10 | 181 | 1.6 | 4.8 | 0.00 | 0.00 | 0.00 | 48 | 1018.4 |
| 20260510141049 | 10 | 0 | 1.6 | 4.8 | 0.00 | 0.00 | 0.00 | 51 | 1018.4 |
| 20260510140548 | 10 | 186 | 0.0 | 6.4 | 0.00 | 0.00 | 0.00 | 52 | 1018.5 |
| 20260510140053 | 10 | 0 | 1.6 | 6.4 | 0.00 | 0.00 | 0.00 | 53 | 1018.3 |
| 20260510135547 | 10 | 186 | 3.2 | 6.4 | 0.00 | 0.00 | 0.00 | 55 | 1018.2 |
| 20260510135047 | 10 | 184 | 1.6 | 4.8 | 0.00 | 0.00 | 0.00 | 60 | 1018.2 |
| 20260510134604 | 10 | 0 | 0.0 | 3.2 | 0.00 | 0.00 | 0.00 | 58 | 1018.2 |
| 20260510134048 | 10 | 190 | 0.0 | 3.2 | 0.00 | 0.00 | 0.00 | 60 | 1018.2 |
| 20260510133549 | 10 | 0 | 0.0 | 3.2 | 0.00 | 0.00 | 0.00 | 55 | 1018.1 |
| 20260510133053 | 9 | 0 | 0.0 | 4.8 | 0.00 | 0.00 | 0.00 | 58 | 1018.2 |
| 20260510132547 | 9 | 0 | 0.0 | 4.8 | 0.00 | 0.00 | 0.00 | 61 | 1018.1 |
| 20260510132048 | 9 | 201 | 0.0 | 3.2 | 0.00 | 0.00 | 0.00 | 63 | 1018.1 |
| 20260510131551 | 8 | 0 | 0.0 | 3.2 | 0.00 | 0.00 | 0.00 | 67 | 1018.1 |
| 20260510131048 | 7 | 17 | 0.0 | 3.2 | 0.00 | 0.00 | 0.00 | 72 | 1018.1 |
| 20260510130548 | 6 | 0 | 0.0 | 1.6 | 0.00 | 0.00 | 0.00 | 80 | 1017.9 |
| 20260510130053 | 6 | 0 | 0.0 | 1.6 | 0.00 | 0.00 | 0.00 | 84 | 1017.8 |
| 20260510125547 | 5 | 0 | 0.0 | 1.6 | 0.00 | 0.00 | 0.00 | 85 | 1017.8 |
| 20260510125047 | 5 | 0 | 0.0 | 1.6 | 0.00 | 0.00 | 0.00 | 89 | 1017.8 |
| 20260510124559 | 5 | 0 | 0.0 | 1.6 | 0.00 | 0.00 | 0.00 | 90 | 1017.7 |
| 20260510124047 | 4 | 0 | 0.0 | 0.0 | 0.00 | 0.00 | 0.00 | 90 | 1017.6 |
| 20260510123545 | 3 | 0 | 0.0 | 1.6 | 0.00 | 0.00 | 0.00 | 90 | 1017.5 |
| 20260510123051 | 3 | 0 | 0.0 | 1.6 | 0.00 | 0.00 | 0.00 | 90 | 1017.5 |
| 20260510122546 | 3 | 0 | 0.0 | 0.0 | 0.00 | 0.00 | 0.00 | 90 | 1017.5 |
| 20260510122045 | 3 | 0 | 0.0 | 0.0 | 0.00 | 0.00 | 0.00 | 90 | 1017.5 |
| 20260510121551 | 2 | 0 | 0.0 | 0.0 | 0.00 | 0.00 | 0.00 | 89 | 1017.4 |
| 20260510121045 | 2 | 0 | 0.0 | 0.0 | 0.00 | 0.00 | 0.00 | 89 | 1017.3 |
| 20260510120548 | 2 | 0 | 0.0 | 0.0 | 0.00 | 0.00 | 0.00 | 88 | 1017.3 |
| 20260510120051 | 2 | 0 | 0.0 | 0.0 | 0.00 | 0.00 | 0.00 | 88 | 1017.3 |
| 20260510115545 | 2 | 0 | 0.0 | 0.0 | 0.00 | 0.00 | 0.00 | 88 | 1017.3 |
| 20260510115045 | 1 | 0 | 0.0 | 0.0 | 0.00 | 0.00 | 0.00 | 87 | 1017.2 |
| 20260510114547 | 1 | 0 | 0.0 | 0.0 | 0.00 | 0.00 | 0.00 | 87 | 1017.2 |
| 20260510114045 | 1 | 0 | 0.0 | 0.0 | 0.00 | 0.00 | 0.00 | 87 | 1017.0 |
| 20260510113547 | 1 | 0 | 0.0 | 0.0 | 0.00 | 0.00 | 0.00 | 86 | 1017.0 |
| 20260510113047 | 1 | 0 | 0.0 | 0.0 | 0.00 | 0.00 | 0.00 | 86 | 1016.9 |
| 20260510112546 | 1 | 0 | 0.0 | 0.0 | 0.00 | 0.00 | 0.00 | 86 | 1016.9 |
| 20260510112050 | 1 | 0 | 0.0 | 0.0 | 0.00 | 0.00 | 0.00 | 86 | 1016.9 |
| 20260510111555 | 1 | 0 | 0.0 | 0.0 | 0.00 | 0.00 | 0.00 | 86 | 1016.8 |
| 20260510111047 | 1 | 0 | 0.0 | 0.0 | 0.00 | 0.00 | 0.00 | 86 | 1016.6 |
| 20260510110550 | 1 | 0 | 0.0 | 0.0 | 0.00 | 0.00 | 0.00 | 86 | 1016.7 |
| 20260510110052 | 1 | 0 | 0.0 | 0.0 | 0.00 | 0.00 | 0.00 | 86 | 1016.6 |
| 20260510105544 | 1 | 0 | 0.0 | 0.0 | 0.00 | 0.00 | 0.00 | 87 | 1016.6 |
| 20260510105045 | 2 | 0 | 0.0 | 0.0 | 0.00 | 0.00 | 0.00 | 87 | 1016.5 |
| 20260510104608 | 2 | 0 | 0.0 | 0.0 | 0.00 | 0.00 | 0.00 | 86 | 1016.5 |
| 20260510104049 | 2 | 0 | 0.0 | 0.0 | 0.00 | 0.00 | 0.00 | 86 | 1016.5 |
| 20260510103545 | 2 | 0 | 0.0 | 0.0 | 0.00 | 0.00 | 0.00 | 86 | 1016.5 |
| 20260510103049 | 2 | 0 | 0.0 | 0.0 | 0.00 | 0.00 | 0.00 | 87 | 1016.4 |
| 20260510102545 | 2 | 0 | 0.0 | 1.6 | 0.00 | 0.00 | 0.00 | 87 | 1016.3 |
| 20260510102044 | 2 | 0 | 0.0 | 1.6 | 0.00 | 0.00 | 0.00 | 87 | 1016.2 |
| 20260510101549 | 2 | 0 | 0.0 | 0.0 | 0.00 | 0.00 | 0.00 | 87 | 1016.2 |
| 20260510101047 | 2 | 0 | 0.0 | 0.0 | 0.00 | 0.00 | 0.00 | 87 | 1016.1 |
| 20260510100545 | 2 | 0 | 0.0 | 0.0 | 0.00 | 0.00 | 0.00 | 87 | 1016.0 |
| 20260510100053 | 1 | 0 | 0.0 | 0.0 | 0.00 | 0.00 | 0.00 | 87 | 1016.0 |
| 20260510095549 | 1 | 0 | 0.0 | 0.0 | 0.00 | 0.00 | 0.00 | 87 | 1015.9 |
| 20260510095045 | 1 | 0 | 0.0 | 0.0 | 0.00 | 0.00 | 0.00 | 87 | 1015.8 |
| 20260510094550 | 1 | 0 | 0.0 | 0.0 | 0.00 | 0.00 | 0.00 | 87 | 1015.6 |
| 20260510094046 | 2 | 0 | 0.0 | 0.0 | 0.00 | 0.00 | 0.00 | 87 | 1015.6 |
| 20260510093547 | 2 | 0 | 0.0 | 0.0 | 0.00 | 0.00 | 0.00 | 87 | 1015.7 |
| 20260510093051 | 2 | 0 | 0.0 | 0.0 | 0.00 | 0.00 | 0.00 | 87 | 1015.6 |
| 20260510092545 | 2 | 0 | 0.0 | 0.0 | 0.00 | 0.00 | 0.00 | 87 | 1015.5 |
| 20260510092048 | 2 | 0 | 0.0 | 0.0 | 0.00 | 0.00 | 0.00 | 87 | 1015.6 |
| 20260510091550 | 2 | 0 | 0.0 | 0.0 | 0.00 | 0.00 | 0.00 | 87 | 1015.5 |
| 20260510091045 | 2 | 0 | 0.0 | 0.0 | 0.00 | 0.00 | 0.00 | 87 | 1015.4 |
| 20260510090544 | 2 | 0 | 0.0 | 0.0 | 0.00 | 0.00 | 0.00 | 87 | 1015.3 |
| 20260510090048 | 2 | 0 | 0.0 | 0.0 | 0.00 | 0.00 | 0.00 | 87 | 1015.4 |
| 20260510085546 | 2 | 0 | 0.0 | 0.0 | 0.00 | 0.00 | 0.00 | 86 | 1015.3 |
| 20260510085045 | 2 | 0 | 0.0 | 0.0 | 0.00 | 0.00 | 0.00 | 86 | 1015.1 |
| 20260510084552 | 2 | 0 | 0.0 | 0.0 | 0.00 | 0.00 | 0.00 | 85 | 1015.0 |
| 20260510084045 | 2 | 0 | 0.0 | 0.0 | 0.00 | 0.00 | 0.00 | 85 | 1015.0 |
| 20260510083545 | 2 | 0 | 0.0 | 0.0 | 0.00 | 0.00 | 0.00 | 85 | 1015.0 |
| 20260510083053 | 2 | 0 | 0.0 | 0.0 | 0.00 | 0.00 | 0.00 | 84 | 1015.0 |
| 20260510082547 | 2 | 0 | 0.0 | 0.0 | 0.00 | 0.00 | 0.00 | 84 | 1014.9 |
| 20260510082044 | 2 | 0 | 0.0 | 0.0 | 0.00 | 0.00 | 0.00 | 84 | 1015.0 |
| 20260510081608 | 2 | 0 | 0.0 | 0.0 | 0.00 | 0.00 | 0.00 | 83 | 1014.8 |
| 20260510081047 | 3 | 0 | 0.0 | 0.0 | 0.00 | 0.00 | 0.00 | 83 | 1014.6 |
| 20260510080544 | 3 | 0 | 0.0 | 0.0 | 0.00 | 0.00 | 0.00 | 83 | 1014.6 |
| 20260510080049 | 3 | 0 | 0.0 | 0.0 | 0.00 | 0.00 | 0.00 | 82 | 1014.5 |
| 20260510075544 | 3 | 0 | 0.0 | 0.0 | 0.00 | 0.00 | 0.00 | 82 | 1014.4 |
| 20260510075046 | 3 | 0 | 0.0 | 0.0 | 0.00 | 0.00 | 0.00 | 81 | 1014.4 |
| 20260510074552 | 3 | 0 | 0.0 | 0.0 | 0.00 | 0.00 | 0.00 | 81 | 1014.4 |
| 20260510074044 | 3 | 0 | 0.0 | 0.0 | 0.00 | 0.00 | 0.00 | 81 | 1014.3 |
| 20260510073545 | 3 | 0 | 0.0 | 0.0 | 0.00 | 0.00 | 0.00 | 80 | 1014.3 |
| 20260510073050 | 3 | 0 | 0.0 | 0.0 | 0.00 | 0.00 | 0.00 | 80 | 1014.2 |
| 20260510072545 | 3 | 0 | 0.0 | 0.0 | 0.00 | 0.00 | 0.00 | 79 | 1014.1 |
| 20260510072048 | 3 | 0 | 0.0 | 0.0 | 0.00 | 0.00 | 0.00 | 78 | 1014.0 |
| 20260510071548 | 3 | 0 | 0.0 | 0.0 | 0.00 | 0.00 | 0.00 | 77 | 1014.1 |
| 20260510071044 | 4 | 0 | 0.0 | 0.0 | 0.00 | 0.00 | 0.00 | 76 | 1014.0 |
| 20260510070544 | 4 | 0 | 0.0 | 0.0 | 0.00 | 0.00 | 0.00 | 75 | 1014.0 |
| 20260510070055 | 4 | 0 | 0.0 | 0.0 | 0.00 | 0.00 | 0.00 | 74 | 1014.0 |
| 20260510065545 | 4 | 0 | 0.0 | 0.0 | 0.00 | 0.00 | 0.00 | 74 | 1013.9 |
| 20260510065045 | 5 | 0 | 0.0 | 0.0 | 0.00 | 0.00 | 0.00 | 74 | 1013.8 |
| 20260510064546 | 5 | 0 | 0.0 | 0.0 | 0.00 | 0.00 | 0.00 | 74 | 1013.8 |
| 20260510064046 | 5 | 0 | 0.0 | 0.0 | 0.00 | 0.00 | 0.00 | 73 | 1013.7 |
| 20260510063544 | 5 | 0 | 0.0 | 0.0 | 0.00 | 0.00 | 0.00 | 73 | 1013.8 |
| 20260510063051 | 5 | 0 | 0.0 | 0.0 | 0.00 | 0.00 | 0.00 | 72 | 1013.8 |
| 20260510062547 | 5 | 0 | 0.0 | 0.0 | 0.00 | 0.00 | 0.00 | 71 | 1013.7 |
| 20260510062047 | 5 | 0 | 0.0 | 0.0 | 0.00 | 0.00 | 0.00 | 71 | 1013.7 |
| 20260510061546 | 5 | 0 | 0.0 | 0.0 | 0.00 | 0.00 | 0.00 | 71 | 1013.6 |
| 20260510061048 | 5 | 0 | 0.0 | 0.0 | 0.00 | 0.00 | 0.00 | 70 | 1013.5 |
| 20260510060547 | 6 | 0 | 0.0 | 0.0 | 0.00 | 0.00 | 0.00 | 70 | 1013.4 |
| 20260510060057 | 6 | 0 | 0.0 | 0.0 | 0.00 | 0.00 | 0.00 | 69 | 1013.2 |
| 20260510055546 | 6 | 0 | 0.0 | 3.2 | 0.00 | 0.00 | 0.00 | 67 | 1013.3 |
| 20260510055045 | 6 | 0 | 0.0 | 3.2 | 0.00 | 0.00 | 0.00 | 67 | 1013.2 |
| 20260510054549 | 6 | 0 | 0.0 | 3.2 | 0.00 | 0.00 | 0.00 | 66 | 1013.2 |
| 20260510054045 | 7 | 0 | 0.0 | 4.8 | 0.00 | 0.00 | 0.00 | 66 | 1013.0 |
| 20260510053548 | 7 | 0 | 0.0 | 6.4 | 0.00 | 0.00 | 0.00 | 65 | 1013.0 |
| 20260510053055 | 7 | 0 | 0.0 | 8.0 | 0.00 | 0.00 | 0.00 | 65 | 1012.9 |
| 20260510052544 | 7 | 26 | 1.6 | 8.0 | 0.00 | 0.00 | 0.00 | 64 | 1012.9 |
| 20260510052047 | 7 | 27 | 1.6 | 11.3 | 0.00 | 0.00 | 0.00 | 64 | 1013.0 |
| 20260510051638 | 7 | 9 | 3.2 | 11.3 | 0.00 | 0.00 | 0.00 | 63 | 1012.8 |
| 20260510051045 | 7 | 0 | 1.6 | 8.0 | 0.00 | 0.00 | 0.00 | 62 | 1012.9 |
| 20260510050547 | 7 | 336 | 1.6 | 12.9 | 0.00 | 0.00 | 0.00 | 61 | 1012.8 |
| 20260510050052 | 8 | 340 | 1.6 | 12.9 | 0.00 | 0.00 | 0.00 | 60 | 1012.8 |
| 20260510045547 | 8 | 343 | 1.6 | 11.3 | 0.00 | 0.00 | 0.00 | 59 | 1012.7 |
| 20260510045047 | 8 | 80 | 1.6 | 12.9 | 0.00 | 0.00 | 0.00 | 57 | 1012.6 |
| 20260510044549 | 8 | 15 | 3.2 | 12.9 | 0.00 | 0.00 | 0.00 | 55 | 1012.4 |
| 20260510044042 | 9 | 346 | 3.2 | 14.5 | 0.00 | 0.00 | 0.00 | 54 | 1012.4 |
| 20260510043543 | 9 | 11 | 3.2 | 14.5 | 0.00 | 0.00 | 0.00 | 51 | 1012.3 |
| 20260510043125 | 9 | 32 | 3.2 | 14.5 | 0.00 | 0.00 | 0.00 | 51 | 1012.1 |
| 20260510042542 | 9 | 26 | 4.8 | 14.5 | 0.00 | 0.00 | 0.00 | 51 | 1011.9 |
| 20260510042045 | 8 | 0 | 0.0 | 6.4 | 0.00 | 0.00 | 0.00 | 53 | 1011.7 |
| 20260510041554 | 8 | 0 | 0.0 | 0.0 | 0.00 | 0.00 | 0.00 | 53 | 1011.4 |
| 20260510041043 | 9 | 0 | 0.0 | 0.0 | 0.00 | 0.00 | 0.00 | 52 | 1011.3 |
| 20260510040545 | 9 | 0 | 0.0 | 0.0 | 0.00 | 0.00 | 0.00 | 53 | 1011.2 |
| 20260510040050 | 9 | 0 | 0.0 | 0.0 | 0.00 | 0.00 | 0.00 | 52 | 1011.0 |
| 20260510035544 | 9 | 0 | 0.0 | 0.0 | 0.00 | 0.00 | 0.00 | 52 | 1011.0 |
| 20260510035046 | 9 | 0 | 0.0 | 0.0 | 0.00 | 0.00 | 0.00 | 53 | 1011.0 |
| 20260510034550 | 10 | 0 | 0.0 | 0.0 | 0.00 | 0.00 | 0.00 | 54 | 1010.9 |
| 20260510034045 | 10 | 0 | 0.0 | 0.0 | 0.00 | 0.00 | 0.00 | 54 | 1010.9 |
| 20260510033545 | 10 | 0 | 0.0 | 0.0 | 0.00 | 0.00 | 0.00 | 54 | 1010.9 |
| 20260510033056 | 10 | 0 | 0.0 | 0.0 | 0.00 | 0.00 | 0.00 | 55 | 1010.7 |
| 20260510032543 | 10 | 0 | 0.0 | 0.0 | 0.00 | 0.00 | 0.00 | 55 | 1010.7 |
| 20260510032045 | 10 | 0 | 0.0 | 0.0 | 0.00 | 0.00 | 0.00 | 54 | 1010.7 |
| 20260510031621 | 10 | 0 | 0.0 | 0.0 | 0.00 | 0.00 | 0.00 | 55 | 1010.6 |
| 20260510031043 | 10 | 0 | 0.0 | 0.0 | 0.00 | 0.00 | 0.00 | 54 | 1010.6 |
| 20260510030543 | 10 | 0 | 0.0 | 0.0 | 0.00 | 0.00 | 0.00 | 54 | 1010.6 |
| 20260510030053 | 10 | 0 | 0.0 | 1.6 | 0.00 | 0.00 | 0.00 | 54 | 1010.6 |
| 20260510025542 | 10 | 0 | 0.0 | 1.6 | 0.00 | 0.00 | 0.00 | 53 | 1010.4 |
| 20260510025042 | 11 | 0 | 0.0 | 0.0 | 0.00 | 0.00 | 0.00 | 53 | 1010.3 |
| 20260510024552 | 11 | 0 | 0.0 | 0.0 | 0.00 | 0.00 | 0.00 | 53 | 1010.3 |
| 20260510024042 | 11 | 0 | 0.0 | 0.0 | 0.00 | 0.00 | 0.00 | 52 | 1010.2 |
| 20260510023543 | 11 | 0 | 0.0 | 0.0 | 0.00 | 0.00 | 0.00 | 52 | 1010.1 |
| 20260510023057 | 11 | 0 | 0.0 | 1.6 | 0.00 | 0.00 | 0.00 | 52 | 1009.9 |
| 20260510022543 | 11 | 0 | 0.0 | 1.6 | 0.00 | 0.00 | 0.00 | 52 | 1009.8 |
| 20260510022041 | 11 | 0 | 0.0 | 0.0 | 0.00 | 0.00 | 0.00 | 53 | 1009.7 |
| 20260510021556 | 11 | 0 | 0.0 | 0.0 | 0.00 | 0.00 | 0.00 | 53 | 1009.5 |
| 20260510021041 | 11 | 0 | 0.0 | 0.0 | 0.00 | 0.00 | 0.00 | 52 | 1009.5 |
| 20260510020546 | 11 | 0 | 0.0 | 0.0 | 0.00 | 0.00 | 0.00 | 52 | 1009.4 |
| 20260510020056 | 12 | 0 | 0.0 | 0.0 | 0.00 | 0.00 | 0.00 | 51 | 1009.2 |
| 20260510015543 | 12 | 0 | 0.0 | 0.0 | 0.00 | 0.00 | 0.00 | 50 | 1009.1 |
| 20260510015043 | 12 | 0 | 0.0 | 0.0 | 0.00 | 0.00 | 0.00 | 50 | 1008.9 |
| 20260510014557 | 12 | 0 | 0.0 | 0.0 | 0.00 | 0.00 | 0.00 | 49 | 1008.8 |
| 20260510014043 | 12 | 0 | 0.0 | 0.0 | 0.00 | 0.00 | 0.00 | 49 | 1008.6 |
| 20260510013547 | 12 | 0 | 0.0 | 0.0 | 0.00 | 0.00 | 0.00 | 48 | 1008.5 |
| 20260510013055 | 12 | 0 | 0.0 | 0.0 | 0.00 | 0.00 | 0.00 | 48 | 1008.3 |
| 20260510012546 | 13 | 0 | 0.0 | 0.0 | 0.00 | 0.00 | 0.00 | 46 | 1008.2 |
| 20260510012043 | 13 | 0 | 0.0 | 0.0 | 0.00 | 0.00 | 0.00 | 46 | 1008.1 |
| 20260510011608 | 13 | 0 | 0.0 | 3.2 | 0.00 | 0.00 | 0.00 | 45 | 1008.2 |
| 20260510011046 | 14 | 0 | 0.0 | 3.2 | 0.00 | 0.00 | 0.00 | 44 | 1008.0 |
| 20260510010545 | 14 | 0 | 0.0 | 6.4 | 0.00 | 0.00 | 0.00 | 43 | 1007.8 |
| 20260510010104 | 14 | 0 | 0.0 | 8.0 | 0.00 | 0.00 | 0.00 | 43 | 1007.8 |
| 20260510005547 | 15 | 0 | 1.6 | 8.0 | 0.00 | 0.00 | 0.00 | 42 | 1007.7 |
| 20260510005046 | 15 | 0 | 0.0 | 6.4 | 0.00 | 0.00 | 0.00 | 42 | 1007.6 |
| 20260510004553 | 15 | 0 | 0.0 | 9.7 | 0.00 | 0.00 | 0.00 | 42 | 1007.5 |
| 20260510004049 | 15 | 10 | 1.6 | 9.7 | 0.00 | 0.00 | 0.00 | 41 | 1007.5 |
| 20260510003547 | 15 | 360 | 1.6 | 9.7 | 0.00 | 0.00 | 0.00 | 41 | 1007.3 |
| 20260510003054 | 15 | 0 | 1.6 | 11.3 | 0.00 | 0.00 | 0.00 | 42 | 1007.3 |
| 20260510002547 | 15 | 355 | 1.6 | 11.3 | 0.00 | 0.00 | 0.00 | 42 | 1007.2 |
| 20260510002047 | 16 | 0 | 1.6 | 17.7 | 0.00 | 0.00 | 0.00 | 42 | 1007.1 |
| 20260510001554 | 16 | 31 | 1.6 | 17.7 | 0.00 | 0.00 | 0.00 | 42 | 1007.0 |
| 20260510001048 | 16 | 43 | 0.0 | 16.1 | 0.00 | 0.00 | 0.00 | 42 | 1006.8 |
| 20260510000546 | 16 | 0 | 0.0 | 16.1 | 0.00 | 0.00 | 0.00 | 43 | 1006.8 |
| 20260510000053 | 16 | 0 | 1.6 | 16.1 | 0.00 | 0.00 | 0.00 | 42 | 1006.7 |
| 20260509235546 | 16 | 24 | 1.6 | 12.9 | 0.00 | 0.00 | 0.00 | 43 | 1006.7 |
| 20260509235045 | 16 | 15 | 1.6 | 17.7 | 0.00 | 0.00 | 0.00 | 42 | 1006.5 |
| 20260509234550 | 16 | 20 | 1.6 | 17.7 | 0.00 | 0.00 | 0.00 | 42 | 1006.5 |
| 20260509234046 | 16 | 0 | 3.2 | 17.7 | 0.00 | 0.00 | 0.00 | 40 | 1006.5 |
| 20260509233546 | 16 | 36 | 3.2 | 11.3 | 0.00 | 0.00 | 0.00 | 42 | 1006.3 |
| 20260509233053 | 16 | 44 | 1.6 | 17.7 | 0.00 | 0.00 | 0.00 | 42 | 1006.3 |
| 20260509232545 | 16 | 13 | 1.6 | 17.7 | 0.00 | 0.00 | 0.00 | 42 | 1006.3 |
| 20260509232047 | 16 | 5 | 1.6 | 19.3 | 0.00 | 0.00 | 0.00 | 41 | 1006.2 |
| 20260509231602 | 17 | 84 | 1.6 | 19.3 | 0.00 | 0.00 | 0.00 | 42 | 1006.3 |
| 20260509231045 | 17 | 341 | 1.6 | 12.9 | 0.00 | 0.00 | 0.00 | 42 | 1006.1 |
| 20260509230546 | 17 | 301 | 3.2 | 16.1 | 0.00 | 0.00 | 0.00 | 41 | 1006.0 |
| 20260509230050 | 17 | 360 | 4.8 | 16.1 | 0.00 | 0.00 | 0.00 | 40 | 1006.0 |
| 20260509225546 | 17 | 51 | 1.6 | 12.9 | 0.00 | 0.00 | 0.00 | 40 | 1005.8 |
| 20260509225046 | 17 | 42 | 1.6 | 22.5 | 0.00 | 0.00 | 0.00 | 40 | 1005.9 |
| 20260509224548 | 17 | 40 | 1.6 | 22.5 | 0.00 | 0.00 | 0.00 | 39 | 1005.7 |
| 20260509224046 | 18 | 350 | 4.8 | 16.1 | 0.00 | 0.00 | 0.00 | 38 | 1005.6 |
| 20260509223547 | 18 | 17 | 3.2 | 11.3 | 0.00 | 0.00 | 0.00 | 39 | 1005.6 |
| 20260509223055 | 18 | 42 | 1.6 | 19.3 | 0.00 | 0.00 | 0.00 | 40 | 1005.5 |
| 20260509222542 | 17 | 56 | 1.6 | 19.3 | 0.00 | 0.00 | 0.00 | 38 | 1005.4 |
| 20260509222042 | 17 | 19 | 1.6 | 14.5 | 0.00 | 0.00 | 0.00 | 39 | 1005.4 |
| 20260509221558 | 18 | 0 | 1.6 | 19.3 | 0.00 | 0.00 | 0.00 | 40 | 1005.3 |
| 20260509221042 | 18 | 27 | 3.2 | 19.3 | 0.00 | 0.00 | 0.00 | 38 | 1005.2 |
| 20260509220541 | 18 | 112 | 6.4 | 17.7 | 0.00 | 0.00 | 0.00 | 38 | 1005.1 |
| 20260509220051 | 18 | 44 | 3.2 | 16.1 | 0.00 | 0.00 | 0.00 | 39 | 1005.1 |
| 20260509215542 | 18 | 302 | 3.2 | 14.5 | 0.00 | 0.00 | 0.00 | 40 | 1005.1 |
| 20260509215045 | 18 | 11 | 3.2 | 14.5 | 0.00 | 0.00 | 0.00 | 39 | 1004.9 |
| 20260509214547 | 18 | 0 | 1.6 | 19.3 | 0.00 | 0.00 | 0.00 | 40 | 1004.9 |
| 20260509214041 | 19 | 271 | 3.2 | 19.3 | 0.00 | 0.00 | 0.00 | 39 | 1004.9 |
| 20260509213541 | 19 | 360 | 3.2 | 19.3 | 0.00 | 0.00 | 0.00 | 38 | 1004.6 |
| 20260509213120 | 19 | 212 | 3.2 | 16.1 | 0.00 | 0.00 | 0.00 | 38 | 1004.6 |
| 20260509212544 | 20 | 0 | 4.8 | 16.1 | 0.00 | 0.00 | 0.00 | 37 | 1004.6 |
| 20260509212042 | 20 | 252 | 3.2 | 16.1 | 0.00 | 0.00 | 0.00 | 38 | 1004.5 |
| 20260509211614 | 20 | 0 | 0.0 | 9.7 | 0.00 | 0.00 | 0.00 | 43 | 1004.5 |
| 20260509211042 | 20 | 34 | 1.6 | 20.9 | 0.00 | 0.00 | 0.00 | 38 | 1004.5 |
| 20260509210542 | 20 | 336 | 6.4 | 20.9 | 0.00 | 0.00 | 0.00 | 38 | 1004.3 |
| 20260509210101 | 20 | 17 | 3.2 | 19.3 | 0.00 | 0.00 | 0.00 | 37 | 1004.3 |
| 20260509205543 | 21 | 36 | 3.2 | 12.9 | 0.00 | 0.00 | 0.00 | 39 | 1004.2 |
| 20260509205043 | 21 | 58 | 0.0 | 16.1 | 0.00 | 0.00 | 0.00 | 39 | 1004.2 |
| 20260509204604 | 21 | 259 | 4.8 | 16.1 | 0.00 | 0.00 | 0.00 | 38 | 1004.2 |
| 20260509204044 | 21 | 0 | 1.6 | 16.1 | 0.00 | 0.00 | 0.00 | 41 | 1004.0 |
| 20260509203543 | 21 | 285 | 3.2 | 19.3 | 0.00 | 0.00 | 0.00 | 40 | 1004.0 |
| 20260509203059 | 21 | 28 | 3.2 | 19.3 | 0.00 | 0.00 | 0.00 | 39 | 1004.0 |
| 20260509202546 | 21 | 23 | 6.4 | 19.3 | 0.00 | 0.00 | 0.00 | 38 | 1003.8 |
| 20260509202042 | 21 | 351 | 4.8 | 19.3 | 0.00 | 0.00 | 0.00 | 38 | 1003.8 |
| 20260509201553 | 21 | 355 | 4.8 | 19.3 | 0.00 | 0.00 | 0.00 | 36 | 1003.8 |
| 20260509201041 | 22 | 336 | 1.6 | 19.3 | 0.00 | 0.00 | 0.00 | 35 | 1003.6 |
| 20260509200541 | 21 | 295 | 1.6 | 19.3 | 0.00 | 0.00 | 0.00 | 39 | 1003.3 |
| 20260509200052 | 20 | 0 | 1.6 | 11.3 | 0.00 | 0.00 | 0.00 | 37 | 1003.4 |
| 20260509195544 | 20 | 302 | 1.6 | 11.3 | 0.00 | 0.00 | 0.00 | 37 | 1003.3 |
| 20260509195042 | 21 | 48 | 1.6 | 11.3 | 0.00 | 0.00 | 0.00 | 36 | 1003.4 |